Theta_e
321 321 320 320 323 323 336 345 350 349 349 347 346 345 342 347 351 355 352 351 345 343 344 340 330 324 326 324 323 327 328 328 329 330 329 329 330 332 334 337 340 341 342 342 342 342 341 341 341
320 320 321 313 320 324 325 334 349 344 345 345 344 343 354 354 355 352 353 349 348 344 344 342 335 326 325 326 323 323 325 328 330 331 331 331 330 330 330 331 332 334 336 336 337 337 336 335 336
317 320 320 315 315 322 324 334 342 343 342 342 339 340 346 357 354 351 350 349 351 346 346 343 338 331 325 327 326 324 324 328 331 333 333 334 335 335 334 332 330 330 330 331 332 332 332 332 334
318 315 313 319 321 320 326 337 343 345 343 342 342 343 352 353 352 351 349 348 347 345 344 343 341 336 327 326 327 326 325 327 330 333 335 335 335 334 333 331 330 330 329 328 328 329 329 329 329
317 313 317 318 319 318 320 336 341 338 342 344 341 346 358 350 351 351 349 345 343 346 345 344 343 342 334 325 327 328 327 327 329 331 333 332 331 333 333 333 332 331 328 327 327 327 328 330 332
315 311 318 320 319 319 324 337 338 337 337 338 341 351 356 350 351 351 350 344 342 347 347 345 345 345 340 328 326 327 328 329 329 330 332 333 333 334 335 335 335 334 334 334 335 335 335 335 336
317 313 316 316 319 321 321 336 340 338 336 338 344 350 351 348 350 349 346 342 344 349 354 347 346 346 342 330 327 327 329 331 332 334 335 336 336 336 336 335 335 335 337 340 343 344 345 347 349
314 315 316 316 318 321 326 339 337 337 336 336 351 356 355 346 349 347 344 342 347 354 353 348 347 346 342 334 332 331 334 338 339 338 337 337 335 335 335 335 335 337 340 343 346 348 349 349 348
311 315 316 317 318 321 330 330 320 333 336 340 350 352 349 347 346 345 345 347 348 353 351 348 347 345 343 340 338 339 340 338 337 335 334 333 337 341 343 344 344 345 345 346 342 342 341 338 338
315 314 315 315 319 320 320 318 320 329 339 340 354 351 348 347 344 342 343 344 346 347 346 345 344 343 341 340 339 337 336 333 332 334 337 339 346 349 350 349 346 342 346 336 338 334 333 336 335
314 315 315 318 321 321 320 320 319 322 332 342 353 354 350 347 344 341 341 341 343 342 343 340 339 338 336 334 333 333 333 334 338 340 348 350 351 351 350 340 340 342 332 329 328 327 327 327 328
315 313 316 317 319 318 318 318 318 319 319 334 343 351 351 349 345 342 339 338 339 339 338 336 334 333 333 333 332 333 338 346 350 350 343 340 340 341 339 331 329 328 327 326 325 325 325 325 325
313 313 313 314 314 314 316 317 318 318 318 321 350 351 351 349 345 342 339 337 337 338 336 334 333 333 334 334 335 344 346 348 344 339 336 335 336 333 329 327 325 324 322 320 320 321 322 322 322
313 312 313 313 313 314 316 317 317 319 318 320 352 353 351 350 346 344 340 338 338 336 335 333 334 334 335 336 339 346 346 347 339 336 332 329 327 326 322 321 319 317 316 318 319 319 318 317 316
311 312 311 311 313 314 314 316 319 321 318 331 350 352 352 351 349 347 343 340 340 337 335 335 335 335 337 340 344 346 347 343 337 327 325 322 318 317 318 317 315 315 316 316 315 315 316 315 314
312 310 312 311 314 314 314 315 316 321 324 343 349 353 353 351 350 350 348 344 342 339 338 336 337 337 341 343 346 348 347 338 326 322 320 319 316 314 314 314 314 314 313 313 313 313 313 314 312
307 311 311 312 312 315 315 315 316 321 332 341 347 352 354 352 351 352 351 348 345 342 341 339 340 339 345 345 347 350 343 330 324 320 319 318 314 313 313 313 313 312 312 311 312 313 316 313 310
310 311 310 312 313 312 312 313 314 324 324 324 329 343 352 351 349 352 352 350 347 345 344 343 345 344 347 348 349 349 335 326 322 320 318 316 314 314 314 313 313 312 312 311 311 311 314 314 312
310 310 311 311 311 313 311 311 312 320 322 326 327 330 335 341 343 345 351 351 348 347 346 346 348 349 350 348 345 340 328 324 323 322 320 315 316 316 315 315 315 315 315 314 312 311 312 315 314
310 310 309 309 309 310 310 310 310 312 318 324 327 328 333 334 345 346 348 346 346 345 344 347 349 350 350 339 341 336 327 325 324 323 320 317 317 317 316 316 316 316 316 316 314 312 312 316 319
309 309 310 310 310 310 310 310 312 312 313 316 323 326 330 333 340 348 341 339 339 340 342 343 347 351 347 330 330 328 325 324 323 323 321 319 318 318 317 317 317 317 317 316 315 313 313 315 316
310 309 311 311 311 311 310 310 310 310 313 314 319 323 325 328 337 345 342 337 336 339 340 340 343 349 337 327 327 326 325 324 324 323 321 320 319 319 318 318 317 317 317 317 315 314 314 315 316
310 311 311 312 311 310 311 310 310 310 311 312 314 315 321 323 333 343 343 339 337 338 338 337 336 336 329 326 326 326 325 324 324 323 322 321 320 320 319 319 318 318 318 317 315 315 315 315 317
313 314 311 308 309 312 312 310 310 310 312 313 313 314 317 320 331 340 342 341 338 337 334 331 329 329 326 326 326 325 324 324 324 323 322 322 321 321 320 320 319 319 318 317 316 315 315 316 317
313 312 314 314 313 316 312 309 312 312 311 312 312 313 313 316 323 336 340 339 339 336 331 328 326 326 326 325 325 324 323 323 323 323 323 322 322 322 321 320 319 319 318 317 317 315 315 315 317
315 310 313 317 315 315 311 313 312 311 313 317 313 310 310 311 316 329 337 339 339 336 331 329 326 326 326 325 324 324 324 323 323 322 323 323 322 322 321 320 319 320 319 318 317 316 315 315 316
318 312 311 313 313 313 312 313 315 319 319 319 319 316 313 312 311 317 330 337 338 337 332 330 327 326 325 325 324 324 324 323 323 323 324 324 323 322 321 320 320 320 319 319 318 316 315 314 315
315 311 317 312 317 317 314 315 320 322 321 319 319 319 317 316 313 311 317 330 337 335 332 330 329 327 326 325 324 324 324 323 323 324 325 323 324 323 322 321 321 321 320 319 318 316 315 314 314
315 310 310 315 314 315 315 315 322 320 318 318 318 320 317 317 316 314 311 320 331 333 330 329 328 327 325 325 324 324 324 324 325 325 325 324 324 323 323 321 322 321 320 319 318 316 315 314 314
305 305 307 317 320 314 313 315 319 318 316 316 316 315 319 318 316 316 313 309 323 329 328 328 328 327 325 325 325 324 324 325 327 327 325 325 324 324 323 322 322 321 320 320 318 316 315 314 314
Wind_Speed
7 3 1 2 3 4 2 5 1 1 1 3 3 5 7 4 4 4 3 20 32 32 29 27 24 23 22 22 22 22 21 20 20 19 19 18 17 15 14 12 10 9 8 7 7 7 7 8 8
7 4 2 2 4 3 4 3 5 6 4 4 4 2 3 5 4 5 11 14 28 31 31 29 26 24 24 23 22 21 21 20 19 18 17 16 15 13 11 10 8 6 5 4 4 4 5 6 7
8 3 3 4 3 4 4 4 6 3 5 5 5 1 4 2 2 13 7 18 27 31 29 29 27 25 24 23 23 22 21 20 18 17 16 14 13 11 9 8 6 4 3 2 2 3 5 6 8
5 4 4 4 5 5 5 6 7 4 5 5 4 4 3 2 8 14 20 25 30 27 27 27 26 24 23 23 22 21 20 19 17 16 14 13 11 9 7 6 5 3 2 3 4 5 7 8 9
4 3 4 1 5 5 5 6 4 4 5 6 6 4 2 4 8 16 25 31 31 25 26 28 26 24 23 23 22 21 19 17 16 14 12 10 8 7 6 5 4 4 4 5 7 8 9 11 12
3 3 3 4 5 5 6 4 1 4 5 8 7 5 4 10 14 19 25 32 27 24 26 27 27 24 23 22 21 19 18 16 14 12 10 9 7 6 4 4 4 4 5 7 8 9 11 12 13
5 4 5 5 3 4 6 7 4 3 2 5 5 5 1 2 14 22 29 27 23 23 24 27 26 24 21 20 20 19 17 15 13 11 9 7 6 5 4 3 4 4 6 8 9 11 11 13 14
4 4 5 4 5 5 3 3 4 3 6 4 5 6 4 6 21 26 26 26 23 23 24 27 26 24 22 21 19 18 16 14 12 10 8 7 6 5 4 4 4 5 6 8 9 11 11 13 12
4 3 4 7 7 4 2 2 3 1 2 4 7 6 6 30 30 24 23 23 25 24 27 28 27 25 23 21 19 17 14 12 11 10 9 8 7 6 5 4 4 5 5 7 8 10 10 12 12
4 3 10 7 5 3 3 4 3 2 4 5 7 6 23 26 28 21 17 17 23 29 29 30 29 26 24 22 20 17 15 14 12 11 9 8 6 6 4 3 3 2 4 5 6 7 8 10 11
5 6 6 4 4 3 3 5 3 6 2 7 12 11 17 19 18 18 17 22 27 32 30 30 27 25 24 23 20 19 17 15 14 12 9 6 6 6 7 5 6 4 3 4 5 6 8 9 10
2 7 5 4 4 2 5 2 6 5 12 7 7 12 13 18 15 17 18 17 22 28 33 30 29 27 25 23 22 20 19 17 14 12 10 10 10 9 7 5 4 2 3 5 7 8 8 8 8
4 5 5 8 9 8 2 9 7 9 12 3 11 16 17 19 20 23 22 21 25 27 32 32 31 30 27 25 24 22 21 17 15 14 12 9 7 7 6 4 3 3 4 6 7 8 9 9 10
5 4 6 6 8 5 5 7 7 12 6 5 13 18 19 20 23 22 24 24 28 32 36 35 33 31 28 27 27 25 21 18 16 13 11 10 7 6 5 5 6 7 8 9 9 10 11 11 12
4 5 6 4 5 7 8 6 13 25 6 7 11 12 14 18 28 30 28 27 31 34 37 37 35 32 29 28 27 25 22 20 17 13 11 10 9 8 8 7 8 9 9 10 10 10 11 13 15
3 3 1 5 2 6 9 9 8 17 13 8 9 11 13 14 24 28 27 28 30 29 34 36 34 33 30 30 28 26 23 21 17 14 13 12 11 9 9 9 9 10 10 11 13 14 15 17 20
5 3 4 6 3 3 6 5 4 4 13 3 6 10 15 14 14 21 27 31 31 29 33 36 35 35 32 30 27 25 23 22 18 17 16 13 11 10 10 11 11 12 13 16 16 17 17 22 24
5 4 4 4 3 4 6 6 7 2 9 9 3 6 12 13 18 28 28 31 30 31 35 39 39 37 33 30 27 26 24 22 19 18 16 13 12 11 11 12 13 14 15 19 20 19 18 22 24
5 4 5 3 5 2 7 5 10 9 6 16 16 9 8 16 16 22 24 27 32 37 39 41 42 39 36 35 32 31 30 26 22 20 16 14 12 11 11 12 13 14 18 20 21 22 21 25 26
5 5 5 6 5 5 5 9 10 8 10 16 26 29 15 10 10 12 25 33 38 41 40 45 45 43 40 38 37 36 35 28 25 22 18 14 12 11 11 11 11 13 15 18 21 23 22 19 24
4 5 4 8 5 3 3 7 5 7 9 10 18 24 15 18 17 15 17 30 33 38 45 47 49 47 43 40 39 33 32 27 24 23 21 17 14 11 10 9 9 10 12 16 19 20 20 17 16
6 8 8 6 2 4 4 5 6 7 9 8 15 15 19 17 18 18 20 25 33 40 40 42 46 48 46 44 43 41 37 28 29 30 24 20 16 12 10 8 7 8 10 13 16 16 16 15 16
8 7 8 5 5 3 4 2 7 3 6 10 11 12 11 16 18 19 21 32 42 36 39 42 41 47 49 47 46 44 38 38 33 30 26 22 18 13 10 8 6 7 8 10 12 12 12 13 11
5 4 5 5 3 2 5 7 5 5 7 5 7 13 8 12 16 19 28 30 31 30 31 35 40 45 50 50 47 47 44 39 33 33 29 24 21 16 12 8 5 6 6 7 9 10 10 10 8
4 5 2 3 0 10 2 5 8 8 9 9 9 10 8 7 14 18 19 18 24 29 34 36 39 40 47 52 50 49 45 43 38 36 33 29 24 20 14 10 7 6 5 5 8 8 8 7 6
4 8 6 6 5 7 4 6 6 8 7 10 8 7 8 7 9 17 21 23 34 36 37 39 41 38 47 50 51 49 46 44 40 37 34 30 25 19 15 12 8 4 4 5 6 6 5 5 6
3 3 6 2 1 3 4 7 2 14 13 15 13 9 8 8 9 11 17 24 30 34 41 44 41 42 43 49 45 47 46 44 41 33 30 27 22 18 15 10 7 3 1 2 4 5 5 5 5
5 3 2 2 4 4 4 2 3 12 13 14 15 13 11 8 8 10 12 21 31 36 37 34 38 46 53 49 47 48 47 42 34 31 29 27 23 19 15 11 8 4 2 3 5 6 6 6 6
4 4 4 2 3 4 3 2 3 5 7 9 10 10 10 10 11 10 11 20 33 35 37 41 37 35 35 40 41 42 44 39 34 31 29 27 24 20 16 12 10 7 5 5 7 8 7 8 9
9 4 3 1 2 1 2 4 6 7 8 7 11 13 11 11 9 9 10 11 20 28 30 35 34 35 37 39 37 37 41 38 34 31 29 27 25 20 16 14 12 10 8 8 8 10 10 10 12
Wind_Direction
183 203 182 53 44 60 252 254 305 252 288 192 160 168 200 170 180 204 319 160 166 164 168 163 162 163 163 158 155 152 147 144 141 138 135 135 135 135 135 134 131 126 116 106 91 78 66 58 51
151 147 45 74 86 35 275 190 218 225 183 189 205 209 178 200 132 114 129 172 176 170 170 166 165 166 168 164 160 156 153 149 145 141 139 137 136 135 136 139 139 135 128 112 85 60 44 35 32
137 102 83 92 110 188 225 207 179 229 219 196 142 341 163 177 157 156 171 169 172 172 172 169 167 167 169 167 163 161 158 155 152 146 143 140 137 134 133 133 133 136 122 93 50 21 10 10 14
142 32 34 94 224 248 218 268 180 213 219 182 144 127 95 347 157 174 158 161 165 169 172 173 170 168 169 169 167 165 163 160 157 152 148 145 141 135 128 122 112 95 70 32 15 4 359 357 358
86 58 73 108 266 266 249 258 177 279 182 160 165 182 104 94 131 155 161 164 169 169 173 175 174 172 171 172 171 169 165 162 160 158 155 150 144 134 126 108 88 65 43 25 13 2 356 355 352
60 103 89 211 246 261 269 222 224 247 303 156 168 128 145 149 141 165 173 170 175 168 172 176 175 176 175 174 172 170 167 165 162 161 159 152 148 141 124 104 76 53 36 21 9 359 353 352 351
136 113 206 180 231 298 253 134 203 256 320 297 117 134 74 163 162 171 171 172 172 166 169 176 177 178 177 174 172 170 168 166 165 164 161 158 148 136 115 90 71 52 33 20 10 2 357 355 353
117 114 143 210 185 241 291 213 122 225 282 297 114 196 189 188 163 169 172 174 174 168 170 176 178 178 177 175 174 171 170 169 166 161 159 151 139 123 105 87 64 40 22 8 4 2 360 360 6
129 80 185 192 169 237 346 33 311 209 266 236 197 152 183 149 151 160 168 174 179 174 174 178 179 179 177 175 173 171 170 164 160 156 151 145 129 115 97 73 53 32 14 8 6 8 12 13 17
136 156 204 201 199 167 218 244 271 240 239 221 192 98 127 140 142 154 175 184 185 181 179 180 182 180 175 174 172 167 165 160 155 147 144 142 135 119 110 67 50 19 13 22 33 16 7 359 2
176 202 202 248 226 224 206 251 235 292 235 220 192 160 141 140 146 165 196 194 197 184 181 181 180 178 176 174 168 165 160 157 151 150 145 135 139 136 130 103 79 84 71 31 7 356 351 347 344
200 227 222 212 211 206 263 226 287 240 260 224 200 147 145 158 163 181 198 203 210 191 185 184 181 179 178 173 169 166 162 157 152 149 141 128 123 124 128 117 97 75 21 360 353 352 351 343 345
211 237 214 227 236 255 243 252 243 256 266 312 143 156 168 168 167 182 192 208 205 196 190 187 184 182 178 176 171 167 165 163 155 151 150 150 152 149 142 126 92 33 9 8 12 9 359 349 343
225 227 246 262 256 231 204 256 156 261 240 256 165 178 171 176 172 180 188 199 204 198 194 190 188 184 181 179 175 171 168 163 159 160 165 166 175 163 142 112 76 53 40 34 25 14 4 360 354
256 289 303 238 246 212 180 255 200 243 243 209 195 188 192 187 167 192 187 195 203 201 194 192 191 187 184 183 178 174 172 168 166 166 165 162 150 136 118 97 77 59 43 35 30 29 22 12 6
336 64 311 279 6 244 158 249 225 249 214 211 204 180 190 188 192 187 187 196 203 196 195 192 193 190 188 185 181 178 175 170 164 160 155 149 139 125 114 95 78 66 53 44 38 28 25 17 10
352 235 224 308 246 257 175 257 300 218 169 342 272 196 183 191 199 194 190 194 197 195 193 190 192 190 189 187 183 179 176 172 167 163 157 146 133 123 110 94 83 69 58 47 42 37 32 16 9
223 223 241 221 286 44 313 273 313 297 128 169 203 247 200 188 199 199 193 191 187 194 197 193 189 190 189 187 186 183 178 176 170 165 159 149 135 123 108 97 89 77 61 50 41 40 37 23 12
210 202 230 248 240 253 254 255 271 237 240 199 222 207 224 199 205 195 185 182 186 197 194 193 189 190 190 189 185 179 179 178 173 170 165 154 139 124 114 105 92 73 56 48 41 38 35 28 22
202 239 270 274 261 175 269 271 260 218 224 212 206 234 205 211 176 169 172 179 189 189 193 195 194 191 192 193 185 182 180 181 179 173 167 159 149 135 124 106 91 74 60 48 39 37 38 37 38
207 189 224 234 297 252 276 292 232 265 213 218 224 218 201 194 197 176 174 181 186 187 194 192 194 193 195 192 184 181 177 180 182 178 173 167 162 145 132 114 97 77 56 47 39 36 39 34 37
236 210 231 249 135 256 152 280 252 256 233 222 219 218 215 200 204 192 186 182 188 198 193 191 192 194 193 192 188 185 180 179 191 184 177 173 169 157 148 131 105 77 61 48 39 34 35 36 34
223 207 205 215 209 71 240 230 269 293 260 250 248 244 218 194 193 198 197 194 196 190 190 190 189 191 194 194 195 189 189 192 190 184 179 176 173 172 167 156 124 86 67 51 39 33 30 31 37
198 145 52 52 108 253 189 183 264 215 208 250 218 250 225 195 196 200 201 203 196 189 185 183 186 190 195 195 196 196 197 194 188 183 181 179 180 180 178 170 140 99 75 56 39 28 23 21 23
120 78 297 313 161 248 231 137 234 242 238 230 228 246 258 196 201 203 195 194 197 191 183 184 187 189 194 197 199 202 203 200 195 187 183 182 183 186 182 173 147 121 83 56 30 23 16 7 5
212 165 166 228 209 258 123 232 252 253 16 5 345 305 303 306 217 208 204 199 189 194 189 187 189 190 196 199 201 205 208 204 199 192 188 189 191 185 175 166 157 138 86 32 16 11 358 346 339
314 181 155 177 355 96 230 288 303 4 1 357 347 344 339 327 307 234 215 205 203 196 193 191 190 193 196 200 200 205 208 205 198 193 192 192 189 183 175 173 172 155 71 1 332 334 325 327 317
69 352 67 7 208 234 268 281 301 347 341 342 342 340 333 330 319 300 235 210 204 198 199 201 198 192 197 197 200 205 206 204 194 192 192 191 188 185 183 185 189 197 219 268 290 295 302 306 311
336 23 360 125 139 196 214 273 331 304 311 324 330 326 325 336 330 308 283 232 207 201 194 195 195 195 193 194 197 200 202 196 189 196 194 193 189 189 190 194 200 211 220 252 268 280 289 294 301
65 48 47 66 207 225 178 244 332 323 313 332 342 340 336 343 325 321 312 259 207 202 198 197 194 192 191 190 191 191 197 192 189 193 196 192 192 191 198 199 208 213 225 245 266 280 283 292 305